Theta_e
304 304 302 302 302 302 302 301 301 300 301 304 306 307 308 310 310 311 311 311 312 310 308 309 310 308 308 308 308 308 308 307 306 307 307 307 307 307 307 307 308 307 307 307 308 308 309 310 311 312 314 316 315 314 314 313 314 315 317 319 323 326 327 321 318 321 326 329 328 331 332 330 327 326 327 326 322 319 319 322 323 316 312 314 313 312 329
305 304 303 301 301 302 301 301 301 300 300 303 306 308 308 309 310 311 312 311 309 309 308 309 309 308 308 307 307 308 308 307 307 307 307 307 307 307 308 307 307 306 306 308 308 308 310 311 311 313 315 316 314 313 313 313 313 314 316 320 322 325 328 326 323 321 321 324 325 324 327 328 326 327 328 326 326 325 323 325 326 319 313 314 314 313 327
305 303 302 301 301 301 301 301 301 300 300 301 305 308 308 308 310 310 310 310 309 308 308 308 308 307 307 307 307 307 308 308 307 307 307 307 307 308 308 307 307 306 307 308 309 308 311 313 313 314 315 314 313 313 312 312 312 312 317 321 320 322 326 329 330 326 321 321 322 319 321 325 326 328 327 326 327 324 321 320 318 319 320 317 315 316 326
304 302 301 301 301 301 300 301 301 301 300 301 305 308 308 308 310 309 309 309 308 309 309 309 309 308 307 307 307 307 308 308 308 307 307 307 307 308 308 308 307 307 307 308 308 309 311 313 314 314 315 314 313 313 312 312 311 314 319 320 317 320 325 328 333 333 328 326 330 332 327 322 320 324 324 326 327 325 324 318 316 325 327 319 322 328 324
303 302 302 302 302 301 301 301 302 302 300 301 306 308 307 307 308 308 309 310 309 309 309 309 309 309 308 308 308 308 309 309 308 308 307 307 308 307 308 309 308 308 309 309 309 309 310 312 313 313 314 313 312 312 312 312 313 316 318 317 316 320 324 327 330 332 333 331 334 336 330 322 320 322 323 324 326 326 322 316 322 336 327 317 333 342 326
304 304 304 304 304 304 303 303 303 304 302 302 305 308 306 306 306 306 307 309 309 310 309 309 309 309 308 307 307 308 308 308 308 308 307 307 308 308 308 308 308 308 309 309 309 310 310 311 313 313 313 313 313 313 312 312 313 315 315 314 314 317 322 326 326 327 330 332 332 333 332 328 325 324 324 324 324 323 320 319 329 339 328 326 347 349 332
305 305 305 305 305 305 305 305 305 305 304 303 306 308 306 306 306 306 306 306 307 308 308 309 309 308 308 308 308 308 308 309 308 307 307 308 308 309 309 308 308 308 309 309 309 310 310 311 312 313 313 313 313 313 313 314 314 313 313 314 313 315 321 323 322 324 329 331 333 334 332 330 328 326 326 327 325 324 322 324 333 337 332 341 358 349 339
305 306 305 305 306 305 305 305 305 305 305 305 306 307 307 307 307 307 306 305 306 307 308 309 309 309 309 308 308 307 308 308 308 307 307 308 309 309 308 308 308 307 308 309 310 309 309 311 311 311 312 312 313 313 314 314 313 312 312 314 313 315 319 319 318 324 330 331 332 333 331 330 327 327 329 328 326 325 323 324 330 334 331 337 350 345 340
305 306 305 305 305 305 305 305 305 305 305 306 307 306 307 308 307 306 305 305 307 308 309 309 309 309 309 308 308 308 307 307 307 308 308 308 309 309 308 309 308 308 308 308 309 308 308 309 309 309 310 311 312 313 312 312 312 312 312 313 314 314 316 316 319 325 330 332 332 331 330 328 325 324 329 330 325 323 323 323 327 332 331 333 336 335 335
306 306 306 306 306 306 306 306 306 306 306 307 307 307 307 308 307 306 306 306 307 308 309 309 309 310 309 308 308 308 308 307 308 309 309 308 308 308 308 309 308 308 308 308 308 308 307 307 308 307 308 309 310 311 311 310 310 311 312 314 314 314 315 315 318 324 328 330 331 330 327 326 324 325 329 333 331 327 324 325 329 334 334 334 335 338 344
306 306 306 306 306 306 307 307 307 307 307 308 308 307 308 308 307 307 306 306 306 308 309 309 309 309 309 308 309 308 308 308 309 310 309 308 308 308 307 309 309 309 309 308 308 307 307 307 307 307 308 308 308 309 309 309 310 311 313 314 314 314 315 315 318 323 326 324 327 329 327 325 329 333 334 335 334 331 326 324 326 330 334 339 345 353 352
306 306 306 306 306 307 307 307 307 307 307 308 308 308 308 308 308 307 305 305 306 306 308 309 308 308 308 308 308 308 308 308 309 309 309 308 308 308 307 308 309 309 308 307 307 308 307 308 308 308 308 309 309 309 309 309 310 311 312 313 314 314 314 315 317 322 324 325 328 329 327 329 333 335 336 334 333 332 332 332 330 330 334 336 341 349 348
306 306 306 306 307 307 307 307 307 307 307 307 308 309 309 308 308 307 305 305 305 305 307 308 307 307 308 308 308 309 308 309 308 307 308 309 308 308 308 307 308 308 308 307 308 308 309 309 309 310 310 311 310 310 311 311 311 311 311 312 313 313 313 315 317 321 327 332 333 329 328 334 335 335 335 333 334 335 335 337 343 344 343 344 339 340 343
306 306 306 307 307 307 307 307 307 307 307 307 308 308 308 308 308 307 306 305 305 305 306 308 307 307 308 308 309 309 308 308 308 308 308 309 308 308 308 307 308 308 308 308 309 310 311 310 311 312 312 313 314 313 313 312 312 312 311 312 312 313 313 315 317 322 327 330 329 328 331 337 337 335 336 334 335 336 335 338 343 346 344 347 345 338 337
306 306 307 307 307 307 307 307 308 308 308 308 308 308 308 308 309 308 306 306 306 305 306 307 307 307 308 308 308 309 309 308 308 308 308 308 308 308 308 308 308 308 308 308 309 312 312 311 311 313 314 315 315 315 314 313 312 312 312 312 313 312 313 315 318 322 323 324 328 329 329 334 334 331 333 333 333 334 335 342 345 345 343 348 350 346 341
306 306 307 307 307 307 307 308 308 308 308 308 308 309 308 308 309 308 307 306 306 306 306 307 307 307 308 308 308 309 309 309 308 308 308 309 309 309 308 308 309 308 308 309 310 312 313 312 312 313 315 315 315 316 315 314 313 312 311 312 312 311 313 314 316 318 320 325 334 333 329 334 336 333 332 334 336 335 335 346 347 344 342 347 350 350 350
306 306 307 307 307 307 307 308 308 308 308 308 308 309 309 309 309 309 307 306 306 307 306 306 306 307 307 307 308 309 310 310 309 309 309 309 309 309 308 308 308 308 309 311 312 313 313 313 313 313 313 314 315 317 317 316 316 315 312 312 312 313 314 314 315 318 320 325 333 333 333 335 334 331 333 336 336 334 341 349 348 344 341 346 348 347 349
306 307 307 307 307 307 308 308 308 308 308 308 308 309 309 309 309 309 308 307 307 307 306 305 306 306 307 307 308 308 309 310 310 309 309 309 310 310 308 307 309 309 310 312 313 313 313 313 313 313 313 314 315 317 318 318 318 317 314 313 314 315 316 316 316 315 318 327 332 331 332 334 329 328 333 336 337 343 350 349 347 342 342 345 345 345 346
306 307 307 307 307 308 308 308 308 309 309 309 309 309 309 309 309 309 309 308 308 308 307 306 307 306 307 307 307 308 309 310 309 309 309 310 310 308 307 310 311 310 311 312 312 313 313 314 314 314 314 315 316 317 318 318 318 317 315 313 314 317 316 316 317 314 318 332 339 335 335 334 327 327 333 336 343 350 349 346 342 338 342 344 342 343 345
306 307 307 308 308 308 308 308 308 309 309 309 309 309 309 309 309 309 309 309 309 308 307 307 307 307 307 307 307 307 309 309 310 310 310 310 310 308 309 312 312 310 311 313 312 312 313 314 314 314 316 317 316 316 318 318 317 317 317 315 317 319 317 316 318 315 318 329 334 336 339 335 325 327 335 340 346 346 342 341 339 337 340 341 340 342 343
307 307 307 308 308 308 308 308 309 309 309 309 309 309 309 309 309 309 309 309 309 309 308 308 308 308 307 308 308 308 308 309 309 310 309 309 309 309 310 311 311 311 312 312 312 312 313 313 313 314 316 317 317 317 318 318 317 317 317 317 321 323 322 321 322 321 324 330 333 336 339 333 325 329 334 336 341 342 338 337 337 335 336 338 339 341 341
307 308 308 308 308 308 308 308 309 309 309 309 309 309 309 309 309 309 309 309 308 308 308 308 308 308 308 308 308 308 309 308 308 309 309 308 309 309 310 310 311 311 312 311 311 312 312 312 313 313 314 315 315 316 318 319 320 319 317 318 322 323 323 325 325 324 327 332 334 335 333 327 325 331 332 330 332 334 333 333 333 332 334 336 336 338 340
307 308 308 308 308 308 308 308 308 308 309 309 309 309 309 309 309 309 309 309 309 309 308 308 308 308 308 309 309 309 309 309 309 309 308 309 309 309 311 312 312 310 312 312 312 312 312 312 313 313 314 314 314 315 316 318 320 320 318 317 320 320 320 322 323 323 324 327 329 328 326 323 323 328 330 329 329 328 328 331 332 332 331 331 332 335 338
307 308 308 308 308 308 308 308 308 308 309 309 309 309 309 309 309 309 309 309 309 309 309 308 308 309 309 309 309 309 309 309 309 309 308 309 310 309 311 314 312 310 312 313 313 313 313 313 312 313 314 314 315 314 314 316 318 318 317 316 317 317 317 317 319 321 322 324 324 323 322 323 324 325 327 329 330 328 327 329 332 332 329 328 330 332 334
307 308 308 308 308 308 308 308 308 308 308 309 309 309 309 310 310 309 309 310 310 310 309 309 309 310 309 309 309 309 309 308 308 309 308 309 309 308 309 311 311 310 311 312 311 313 314 313 312 313 314 314 314 314 314 316 317 316 315 315 316 317 317 317 318 319 320 322 323 321 321 324 324 323 324 325 328 328 326 326 329 330 328 326 327 329 330
307 308 308 308 308 308 308 308 308 308 308 308 308 309 309 310 310 310 310 310 310 310 309 309 310 310 310 310 310 309 309 308 308 308 308 308 309 309 308 309 309 309 311 311 311 312 313 312 312 312 313 313 313 313 313 315 315 314 314 314 316 317 317 317 317 317 317 319 320 319 320 322 322 321 321 321 322 324 325 325 325 327 328 327 326 326 328
307 308 308 308 308 308 308 308 308 308 308 308 308 309 310 311 311 310 310 310 310 310 310 310 310 310 310 310 310 310 309 309 308 308 308 308 308 308 309 309 310 311 311 312 312 312 312 312 311 311 311 311 311 312 312 313 314 314 314 315 315 318 318 317 317 318 318 318 318 317 318 320 319 318 319 319 320 322 323 325 325 326 329 329 326 324 326
308 308 308 309 309 309 309 309 309 309 309 309 310 311 312 312 312 311 310 310 310 311 311 310 310 311 311 310 310 310 309 309 309 308 309 309 309 309 309 309 310 310 311 311 311 311 311 311 310 310 311 312 312 312 313 313 313 314 317 318 318 318 318 317 317 318 318 317 317 317 318 318 318 317 317 319 321 321 322 324 326 325 327 328 327 326 326
308 309 309 310 310 310 310 310 310 310 311 311 312 313 313 312 312 311 311 310 310 310 310 310 311 311 311 311 311 310 309 309 309 309 309 309 309 309 310 310 310 310 310 311 311 311 311 310 310 310 311 312 313 313 313 313 313 314 316 318 318 317 316 316 316 317 316 316 316 317 317 317 317 317 317 318 320 321 321 322 323 324 324 324 326 327 327
309 310 310 310 310 311 311 311 311 312 313 314 314 314 314 313 312 311 311 310 310 310 311 311 311 311 311 311 311 311 311 311 311 311 311 311 312 312 311 311 311 311 311 311 311 311 311 311 310 310 310 311 312 312 312 313 313 313 313 314 315 315 314 314 315 315 315 315 316 316 316 316 316 317 317 317 319 321 322 321 323 325 326 325 327 329 329
310 310 310 310 311 311 311 312 312 313 313 313 314 315 315 315 313 311 311 311 311 310 311 311 311 311 311 311 311 312 312 312 313 313 313 313 314 314 312 312 313 313 313 313 312 311 311 312 312 311 311 311 311 311 312 312 313 313 312 313 314 313 312 312 312 313 313 314 314 314 315 315 315 316 316 317 319 321 321 322 324 325 326 325 325 327 328
311 311 311 310 311 311 311 312 313 312 311 311 311 311 311 312 311 310 310 310 311 311 310 311 311 312 313 313 312 312 312 312 314 316 315 314 315 316 314 314 315 314 313 314 313 311 311 312 312 311 312 312 311 311 311 312 313 313 312 312 312 311 311 311 311 311 311 312 313 314 314 315 315 316 316 317 319 319 319 320 321 320 321 322 322 322 323
312 312 312 311 311 312 311 312 313 312 312 312 311 309 308 308 309 309 310 310 311 311 311 311 312 313 313 314 314 313 312 313 315 317 317 316 315 315 314 314 314 313 312 312 311 310 311 312 311 311 312 312 312 311 311 312 313 313 312 312 311 310 310 310 310 310 311 311 312 313 314 314 315 316 317 317 318 318 319 319 319 319 320 321 321 322 323
312 313 313 313 313 313 313 313 314 314 314 314 313 311 309 308 308 310 311 311 312 312 311 311 312 313 313 314 316 315 313 314 317 318 317 316 315 315 314 313 312 312 311 311 311 310 310 310 310 310 310 310 310 310 311 312 312 311 311 311 310 310 310 309 310 311 311 311 312 312 313 314 315 316 317 317 317 317 317 318 318 319 320 321 321 322 323
312 313 314 314 314 314 314 314 315 315 316 316 315 312 310 308 308 309 310 311 312 313 313 312 312 313 314 315 317 315 313 315 318 318 317 316 315 315 315 313 312 311 312 312 310 310 310 310 310 310 309 308 310 311 311 310 309 308 308 309 309 310 312 312 312 312 312 312 313 312 313 314 315 315 316 317 316 316 317 317 318 319 320 320 321 322 323
313 313 314 315 314 314 315 316 316 317 317 316 313 310 309 308 308 308 309 310 310 312 313 313 314 314 315 315 316 315 314 316 318 318 318 318 317 316 316 315 314 313 313 313 312 312 312 312 311 310 309 309 310 310 309 308 308 308 308 310 312 313 314 315 316 316 316 315 314 314 314 314 315 316 317 317 317 317 317 317 318 319 319 321 322 322 323
314 314 313 314 314 316 318 319 318 316 315 312 311 310 309 309 309 310 310 310 310 310 311 313 315 315 314 315 315 315 316 318 319 319 319 319 318 317 317 316 315 314 314 314 315 314 313 312 310 309 309 310 310 310 310 311 312 313 313 313 313 314 315 316 317 319 320 319 317 316 316 316 316 317 318 318 318 317 317 318 318 318 319 320 321 322 323
316 314 313 314 317 320 321 320 317 314 312 311 312 313 312 311 312 314 313 312 313 312 311 313 316 316 315 316 318 316 316 319 320 320 320 320 319 319 319 318 318 317 316 317 317 315 314 313 311 310 310 312 312 312 313 313 314 315 315 314 313 314 315 315 316 319 322 322 320 317 317 317 318 318 319 319 319 318 318 318 319 319 320 320 320 321 322
316 315 315 318 321 321 320 318 314 313 313 313 313 315 316 314 316 318 318 316 316 316 314 315 318 319 318 319 320 317 316 318 320 320 320 320 321 320 320 319 318 318 316 316 317 317 315 314 313 311 312 313 314 314 314 314 314 315 315 314 314 314 314 314 315 317 319 322 322 320 319 320 320 320 321 321 320 319 319 320 320 321 321 320 320 321 321
318 319 322 324 323 320 318 315 313 313 315 316 315 317 319 319 319 322 323 321 320 321 320 320 320 320 319 320 321 320 318 318 320 320 320 320 320 320 320 319 318 317 315 315 316 317 315 314 313 312 313 315 316 316 315 315 315 315 315 315 314 314 314 313 314 314 316 318 319 320 321 322 322 323 323 322 321 320 321 321 321 321 321 321 322 322 321
321 323 324 324 323 319 316 315 315 316 318 319 319 319 321 322 323 324 324 323 322 323 324 324 323 322 322 321 322 323 321 319 319 321 321 320 319 319 319 319 319 317 316 315 314 314 314 314 313 313 314 315 316 316 316 315 315 315 315 315 315 314 314 313 313 313 313 314 316 316 317 318 319 321 322 323 323 322 322 321 321 322 321 321 322 322 322
319 319 319 320 321 320 318 318 319 321 321 321 322 322 321 322 324 324 323 323 323 324 325 324 323 323 322 322 322 323 322 320 320 321 322 321 321 320 320 319 318 317 317 316 314 313 314 314 314 314 314 315 315 315 315 316 316 315 315 315 315 314 314 313 313 312 312 313 313 314 314 314 315 316 318 320 321 323 323 324 324 323 322 321 322 324 325
319 319 320 321 323 324 323 322 323 323 322 321 322 322 322 321 322 323 322 322 324 324 324 324 323 323 323 322 322 323 322 320 320 322 322 321 321 321 319 317 316 316 316 315 314 314 314 314 314 314 315 314 314 314 314 315 316 316 315 315 315 314 314 313 313 312 312 312 312 312 312 313 313 314 315 316 317 319 322 324 325 324 324 324 324 324 325
321 323 324 326 326 325 325 324 323 321 321 320 320 321 321 320 321 323 323 322 324 325 325 324 325 325 324 323 323 323 323 322 322 322 322 322 322 320 317 316 316 316 315 314 314 314 314 315 315 314 314 314 313 314 314 314 315 316 316 315 314 314 314 313 313 312 312 311 311 311 311 311 312 312 312 313 314 315 317 320 321 321 321 322 323 323 325
325 326 325 325 325 323 322 323 321 318 318 318 318 319 319 319 320 322 322 322 324 325 323 322 324 325 325 324 323 323 323 323 323 323 324 322 319 316 316 316 316 315 315 315 315 315 315 315 314 314 314 314 314 314 313 313 314 315 316 315 315 314 314 313 313 313 312 311 311 311 310 310 311 311 311 312 312 313 313 314 316 316 315 315 317 319 321
326 323 319 319 320 319 318 318 317 316 316 317 316 316 317 317 318 318 319 321 323 324 322 323 326 326 324 324 324 323 323 322 322 323 324 322 317 315 316 317 316 315 315 316 315 315 315 315 314 314 314 314 314 313 313 313 312 313 314 315 315 314 314 313 313 313 312 312 311 311 310 310 310 310 310 310 311 311 312 312 312 313 313 313 313 314 314
323 320 317 317 318 318 317 317 317 316 316 316 315 315 315 316 317 317 317 317 318 321 323 326 327 326 323 323 324 323 323 324 323 322 321 320 317 314 316 317 316 315 316 316 316 315 315 314 314 314 314 314 314 313 313 313 312 312 312 314 315 315 314 314 313 313 313 312 311 311 310 310 309 309 309 309 310 310 310 310 310 311 311 311 312 312 312
319 318 317 317 318 317 316 316 317 316 315 315 314 314 315 315 315 316 316 315 316 319 323 324 323 322 321 322 322 320 319 322 322 319 317 317 317 316 315 316 316 316 316 316 316 316 315 313 314 314 315 314 313 313 313 312 312 312 311 311 313 314 314 314 313 313 312 312 312 311 311 310 310 309 309 309 309 309 309 309 310 310 310 310 311 311 311
317 317 317 318 317 316 315 315 315 315 314 314 314 314 315 315 315 315 315 315 317 320 321 320 319 317 316 317 318 317 316 318 319 317 316 317 317 316 315 316 316 316 316 316 316 316 315 314 315 315 314 313 312 312 312 312 311 311 311 310 310 312 313 313 313 313 312 312 311 311 310 310 310 309 309 309 309 308 308 308 309 309 309 309 309 310 310
317 317 317 317 316 315 314 314 314 314 314 314 314 314 314 315 315 314 314 316 318 320 319 317 317 316 314 314 314 316 316 317 317 316 316 317 316 315 316 316 315 315 316 316 315 314 315 316 315 314 313 313 312 312 312 311 311 310 310 310 309 310 311 312 313 313 312 312 312 311 310 309 309 309 309 309 309 308 308 308 308 309 308 308 308 308 308
316 316 317 316 316 316 315 314 313 313 314 314 314 314 315 315 314 314 315 317 318 318 316 315 314 314 313 313 314 314 315 315 315 315 315 316 315 316 316 315 315 315 316 315 314 313 314 314 314 312 312 312 312 312 311 311 311 310 309 309 310 310 310 311 312 312 312 312 312 311 310 309 309 308 308 308 308 308 308 308 308 308 308 308 308 308 308
315 316 317 317 316 316 315 315 314 314 314 315 314 315 315 315 314 315 316 317 316 314 314 314 314 313 313 313 313 313 313 313 313 313 313 314 315 315 316 315 315 316 316 315 314 313 313 312 312 312 312 312 312 311 311 311 311 310 309 309 309 310 310 310 311 311 312 312 311 311 311 310 310 308 308 307 307 308 308 308 308 307 308 308 308 308 308
Wind_Speed
23 24 24 25 27 27 28 29 30 33 35 31 27 21 11 4 8 22 31 33 26 10 2 6 6 2 6 9 8 9 8 7 7 7 8 7 6 6 6 9 10 8 10 10 10 10 7 7 9 11 13 11 11 18 22 20 18 14 11 11 14 13 6 5 8 8 9 10 14 17 16 15 12 11 9 7 9 10 6 4 6 6 6 6 3 3 5
23 24 24 24 26 27 27 28 28 29 31 29 22 12 5 5 8 16 26 31 24 8 3 6 5 5 8 8 9 11 9 8 8 8 8 7 6 6 6 8 9 9 11 10 11 11 6 4 9 11 9 11 16 19 19 18 15 11 10 11 11 10 7 4 5 6 6 8 11 15 15 13 9 10 12 10 10 13 9 4 5 5 7 8 4 3 6
23 24 24 24 25 26 26 26 27 26 27 27 21 8 4 7 5 5 17 26 18 6 5 8 7 8 9 9 10 9 8 9 9 9 9 7 5 6 6 8 9 10 10 9 10 10 6 4 7 8 8 11 14 15 18 19 15 13 19 20 12 8 8 5 4 5 4 4 6 8 11 11 8 9 15 14 13 14 11 5 4 4 8 9 6 4 6
24 24 24 24 25 25 25 25 26 26 24 24 19 11 6 6 5 4 9 12 9 4 7 10 8 9 10 9 8 8 9 9 8 7 7 6 6 7 6 8 9 9 10 10 10 9 6 4 6 7 9 9 10 15 20 20 18 19 25 24 12 6 7 7 7 7 6 6 5 5 11 13 10 11 15 16 16 13 9 7 5 4 6 6 6 6 4
24 25 24 25 25 24 24 24 24 24 23 22 16 10 6 3 4 7 6 5 6 6 7 9 9 11 13 9 8 10 10 9 7 5 5 6 7 6 5 6 8 9 10 10 10 10 9 7 8 9 9 9 12 18 19 16 17 20 21 19 12 6 6 8 10 10 10 12 13 8 10 18 17 15 14 16 19 17 10 9 8 6 7 5 7 8 7
25 25 24 24 24 25 24 23 23 23 22 20 13 5 3 2 2 6 7 5 5 6 8 10 12 15 14 9 8 11 11 10 9 6 7 9 7 4 4 7 10 12 11 9 8 9 8 8 7 7 8 9 11 15 17 15 13 14 14 14 10 7 6 7 11 13 12 13 14 12 7 11 17 18 16 15 19 21 15 9 10 9 7 5 7 10 9
25 25 25 24 24 25 24 22 22 21 19 17 10 4 2 3 3 4 6 5 6 8 10 12 12 14 12 8 8 9 10 11 10 8 8 9 6 5 6 9 11 13 12 9 7 7 7 7 6 6 7 9 8 9 14 14 11 13 12 12 10 7 6 13 16 14 13 12 10 10 8 3 7 14 18 15 15 21 19 11 9 10 8 7 8 12 10
25 25 25 24 24 24 23 22 20 19 18 14 8 5 3 2 1 3 4 5 6 7 9 9 9 10 10 8 7 8 8 10 10 9 10 10 7 6 9 12 11 11 12 9 8 8 8 7 7 8 8 7 5 4 5 9 13 15 11 10 11 9 8 16 16 9 7 8 9 12 11 6 1 5 14 16 14 18 20 14 9 9 8 9 10 10 8
26 26 24 24 24 23 22 21 19 17 16 12 7 5 5 2 1 2 3 4 5 5 6 7 7 7 7 7 8 10 11 12 11 8 9 10 8 8 12 13 9 9 11 11 11 10 9 9 10 10 9 6 4 4 4 8 14 14 10 9 11 10 9 12 11 6 5 4 6 13 14 7 4 4 6 9 8 12 17 15 9 7 9 8 8 7 5
26 26 25 24 23 23 21 20 19 16 14 12 6 3 5 3 1 1 1 3 4 4 5 6 5 5 6 8 10 12 14 15 12 7 5 7 9 11 12 11 7 7 9 10 12 12 11 13 12 9 9 8 7 7 9 11 11 10 9 9 9 9 9 9 8 7 6 5 5 12 11 6 4 6 3 2 3 5 14 15 10 7 9 8 5 5 7
26 25 25 24 23 22 21 20 19 16 15 14 10 6 8 7 3 1 0 3 4 3 4 5 4 5 8 12 13 13 15 16 11 6 5 7 10 12 11 9 7 6 7 10 12 13 13 14 13 10 10 12 11 10 12 15 13 11 9 8 9 10 10 8 6 5 7 9 9 8 5 3 4 2 2 5 5 6 9 17 15 9 6 7 7 5 4
26 25 25 24 23 23 22 20 20 18 17 18 16 14 15 13 7 2 1 3 4 3 4 5 5 8 12 14 14 12 15 16 13 10 9 8 10 11 10 9 7 6 8 11 14 15 14 13 13 13 12 13 14 14 15 16 15 13 10 9 10 11 10 7 4 4 6 8 7 3 2 5 4 3 7 6 4 5 4 8 9 6 3 4 10 9 7
26 26 25 25 24 23 22 20 20 19 17 18 18 17 17 14 7 3 2 2 3 4 5 7 9 12 13 14 14 12 14 16 15 13 11 8 8 10 9 8 8 8 10 12 13 13 12 10 9 11 11 11 11 12 16 17 16 15 13 11 11 10 8 5 4 4 4 4 2 3 3 6 3 6 9 8 4 2 9 15 9 10 14 8 6 14 14
27 26 25 25 24 23 22 20 19 19 17 17 18 18 18 14 9 4 3 2 4 4 5 6 8 10 11 12 12 11 12 14 13 11 9 6 6 8 9 9 10 9 8 8 8 6 5 5 5 6 7 6 6 8 12 14 15 17 16 13 11 10 7 4 4 4 3 4 4 3 2 5 5 8 11 12 10 3 5 11 12 17 22 20 7 11 18
26 26 25 24 23 22 21 20 19 18 17 17 17 18 18 17 13 7 4 2 3 4 4 5 7 9 11 11 9 9 10 9 9 9 9 7 5 6 8 10 10 7 5 6 4 2 2 3 4 4 4 4 3 4 6 8 11 16 18 15 12 11 7 4 4 3 4 4 4 2 2 2 7 13 16 16 15 8 7 13 13 17 21 22 16 7 11
26 25 24 23 22 21 20 20 19 19 17 16 16 17 17 16 13 11 6 3 2 3 2 5 7 8 9 8 8 8 6 5 7 7 6 7 7 6 8 10 7 5 5 6 3 2 2 2 3 3 4 5 6 4 3 3 4 10 15 15 13 12 9 5 4 4 5 4 2 2 1 2 10 18 18 18 18 11 6 13 11 14 18 18 18 16 13
25 25 24 23 23 21 20 19 19 18 17 16 16 17 17 15 12 13 8 3 3 4 3 5 7 6 5 6 7 6 3 2 5 4 3 6 7 6 8 10 7 6 6 5 2 1 1 2 3 3 3 5 7 6 5 5 5 2 8 11 10 9 6 4 3 4 5 4 2 2 0 3 14 20 18 18 19 9 7 9 5 11 16 15 17 18 18
25 25 24 23 22 21 20 19 19 18 17 16 16 16 16 14 12 12 8 2 2 4 4 7 9 6 5 6 6 6 5 4 4 4 5 5 4 6 9 8 5 5 5 4 3 2 2 2 3 3 3 5 6 6 5 5 6 3 3 6 4 4 3 3 3 4 5 4 1 1 1 4 14 19 18 18 14 4 9 6 2 8 11 12 15 16 16
25 25 23 22 21 21 20 20 19 18 16 15 15 14 14 11 9 11 8 3 3 4 3 6 9 8 8 7 7 7 6 4 3 4 5 3 4 9 11 5 2 3 4 3 2 2 2 2 2 1 2 4 5 4 5 5 5 5 1 4 2 1 2 1 1 3 4 2 0 1 1 5 14 17 16 15 8 5 5 1 3 6 10 12 14 14 13
25 24 23 23 22 21 20 19 18 17 15 14 13 13 13 11 8 11 11 6 2 5 7 10 12 13 11 9 9 9 7 4 2 3 4 4 6 9 7 3 3 4 3 3 2 2 2 3 3 1 1 2 3 3 5 5 5 6 5 2 0 2 2 1 1 2 3 1 2 2 1 7 16 16 13 12 8 4 1 2 3 9 12 11 12 12 12
24 24 24 23 22 21 20 18 17 16 14 13 12 11 11 10 7 9 15 12 4 2 5 7 10 13 12 11 12 12 11 9 7 4 4 5 5 5 4 3 5 3 2 3 3 1 1 3 3 3 2 1 2 3 5 5 5 7 9 5 2 3 3 2 2 3 3 2 2 2 1 5 11 10 8 7 5 5 2 4 6 8 10 9 9 10 12
24 24 23 22 21 20 19 17 17 16 14 12 11 9 9 9 8 7 12 16 11 6 8 12 15 16 17 17 18 17 16 16 14 10 7 5 4 3 3 4 4 1 0 2 2 1 2 2 3 4 3 2 4 5 5 3 2 5 8 5 2 2 1 1 1 2 2 1 3 2 2 5 7 7 5 7 6 8 8 8 7 7 8 8 8 9 12
24 24 22 22 20 20 19 18 17 15 14 11 10 8 9 10 9 5 8 12 10 8 13 17 16 15 16 17 18 20 20 19 18 15 9 4 4 4 2 1 2 1 1 1 1 2 3 3 3 4 3 3 4 6 6 4 2 4 6 4 3 6 4 0 1 2 3 2 3 1 4 7 7 5 4 7 8 9 9 8 6 7 7 7 8 9 10
24 23 22 22 21 20 20 19 17 15 13 10 9 9 9 10 8 5 7 6 3 3 7 9 7 7 11 13 11 12 14 15 15 15 11 6 4 3 2 1 1 2 1 1 3 2 2 2 3 3 3 3 4 4 5 4 2 4 6 5 4 6 7 5 2 2 3 2 3 7 7 5 5 5 3 4 6 8 7 6 5 6 8 8 9 10 10
23 23 22 22 21 21 20 18 16 15 12 9 7 7 7 8 6 7 8 4 1 2 3 3 4 9 13 12 9 8 8 9 9 9 9 9 7 5 5 4 4 4 4 4 2 2 1 2 3 3 3 3 3 3 3 3 3 5 6 5 5 5 6 6 4 4 3 2 5 8 8 5 5 4 4 5 6 7 7 6 6 7 9 10 10 10 10
23 23 22 22 21 19 17 15 14 12 9 6 5 5 6 5 5 9 9 4 1 1 2 3 6 10 10 8 8 8 6 6 7 6 5 6 7 7 8 7 6 6 5 4 3 3 3 3 3 3 3 2 3 4 4 3 5 6 5 5 6 5 5 7 7 5 3 2 4 9 9 7 5 7 9 7 6 7 8 8 8 8 9 10 11 10 10
23 23 22 20 18 16 14 12 9 6 3 3 4 4 4 4 5 9 9 4 1 1 2 2 4 9 13 13 13 10 6 5 6 3 2 4 7 8 9 7 5 4 3 3 3 3 3 3 3 4 3 4 4 4 4 4 5 4 4 5 6 5 5 6 7 5 4 4 7 10 8 6 7 10 12 9 7 7 7 7 8 7 8 9 10 10 9
23 21 18 15 13 13 10 7 3 3 4 4 4 2 1 2 5 8 7 5 3 2 3 3 5 9 12 12 11 7 4 3 4 3 3 4 5 6 6 5 4 4 3 3 3 3 3 4 5 4 3 4 4 4 4 4 4 3 3 3 4 4 5 6 5 5 7 8 9 8 4 4 8 12 13 10 7 6 6 5 5 6 6 5 6 8 8
20 15 12 11 10 9 8 7 7 7 7 7 5 2 2 2 3 5 7 6 5 2 2 4 5 5 7 8 8 5 1 3 3 2 2 2 4 6 7 6 4 4 4 3 3 3 4 4 4 4 5 6 4 4 4 4 4 3 5 6 4 4 6 7 7 8 10 10 10 9 7 6 7 12 14 11 7 7 6 5 4 4 4 3 4 5 6
14 10 9 8 7 9 10 10 8 6 4 3 1 2 2 2 2 4 5 5 5 2 1 3 3 4 6 6 7 11 10 8 8 10 10 8 7 7 8 6 4 3 3 3 3 3 3 3 4 5 7 8 5 3 4 5 4 5 7 9 8 9 11 10 8 9 11 11 11 12 11 8 7 9 12 11 8 7 7 5 3 3 3 3 4 4 5
9 7 7 6 7 8 9 9 7 6 5 3 2 2 1 1 1 2 3 4 4 2 1 3 3 3 4 3 6 11 14 13 12 11 10 8 7 7 8 6 4 4 4 2 2 3 3 3 4 5 6 8 6 3 5 6 6 6 9 11 12 13 14 13 12 12 13 13 13 15 15 12 8 8 9 9 8 8 7 5 4 3 4 4 5 5 5
5 6 7 7 7 6 6 6 6 6 6 5 3 2 1 3 3 2 1 2 3 2 1 2 2 2 2 2 5 8 10 8 7 5 4 4 4 5 6 4 3 3 4 3 2 2 2 3 4 5 5 6 5 4 5 5 6 8 12 14 13 13 14 14 14 14 14 13 13 15 16 12 8 7 9 8 7 9 8 7 7 6 4 4 5 6 6
4 6 6 7 6 5 4 4 4 5 5 6 7 7 5 5 5 3 2 1 3 4 2 2 2 2 2 1 3 6 7 4 2 2 2 2 2 2 3 3 2 3 5 3 1 1 2 2 3 4 4 4 4 4 4 4 7 11 15 15 15 15 16 17 16 15 14 12 11 13 15 13 9 9 10 9 9 10 9 8 8 8 6 5 5 5 6
4 5 5 5 4 3 2 2 3 2 2 1 4 5 4 3 4 5 3 0 3 4 2 1 1 2 3 2 1 4 5 3 1 1 2 2 2 1 2 2 2 2 3 2 1 1 2 2 2 3 4 3 3 3 3 5 10 14 15 16 16 17 17 17 15 14 14 13 12 14 16 14 10 10 12 11 11 11 11 10 9 8 6 5 5 5 5
4 4 4 3 2 1 2 4 5 6 5 1 3 3 3 1 2 4 2 1 2 1 1 0 1 2 3 2 1 2 3 2 1 1 1 1 2 1 1 1 1 1 1 1 1 1 2 2 1 2 3 3 3 2 3 9 15 17 16 16 18 17 16 16 15 14 12 12 13 14 14 12 12 12 13 13 12 11 11 11 10 8 7 6 5 5 5
3 4 3 2 2 4 6 6 5 4 3 1 2 2 2 2 1 1 1 1 1 1 1 1 1 2 3 2 1 2 3 1 0 0 0 1 1 1 1 1 1 1 1 1 1 1 1 1 0 1 2 2 2 4 6 11 16 17 14 14 17 17 16 17 18 16 14 13 14 13 12 12 13 12 12 12 12 11 11 12 11 10 9 7 5 6 6
2 4 4 4 5 5 5 4 1 1 1 0 1 3 3 3 1 1 0 1 2 1 1 1 1 1 2 1 1 1 2 1 0 0 0 0 1 1 1 1 1 1 1 1 0 1 1 1 1 1 1 1 4 7 8 10 12 11 9 12 16 16 14 14 14 13 11 12 13 12 11 11 11 11 11 12 12 12 12 12 11 10 9 8 6 7 6
3 2 4 4 4 3 2 2 1 1 1 0 2 2 2 2 2 2 1 1 2 2 2 1 1 1 1 1 1 1 1 1 1 1 1 0 1 1 0 0 1 1 1 1 0 1 1 1 1 1 2 3 4 5 7 11 12 10 8 11 15 15 14 14 16 14 7 8 11 11 10 11 11 11 11 11 12 12 11 10 9 8 8 7 7 7 6
2 2 3 5 3 1 1 1 1 2 2 1 1 0 2 2 1 1 1 1 1 2 2 1 2 1 1 1 1 1 0 1 1 0 0 1 1 1 0 0 1 0 1 1 1 2 0 1 1 1 3 4 5 7 8 9 11 11 10 11 15 17 17 16 16 16 13 7 3 6 8 9 10 11 11 10 10 10 10 9 7 6 6 7 7 8 8
2 3 4 3 1 1 1 2 3 3 1 1 1 0 1 2 1 1 1 1 1 0 0 1 2 2 1 1 1 1 1 1 0 1 1 1 1 1 0 0 1 0 1 1 0 1 1 2 2 2 4 6 7 7 8 9 11 13 12 13 15 19 20 19 19 19 18 16 12 7 4 3 4 6 6 6 7 7 7 6 7 6 7 8 8 9 9
3 4 4 3 2 1 2 2 3 2 1 2 1 1 1 0 1 1 1 1 2 1 0 1 2 2 1 1 1 2 1 1 0 1 1 0 0 0 1 1 1 1 1 1 0 1 0 1 2 3 5 7 8 7 7 9 11 13 14 15 15 17 19 21 23 23 21 18 16 14 14 14 11 7 5 4 4 6 6 6 7 7 8 9 11 13 14
8 7 7 5 3 2 2 1 2 2 1 1 1 1 2 0 1 1 1 1 1 1 1 1 1 2 3 3 2 1 1 1 1 0 0 0 0 0 1 1 1 1 0 1 1 0 1 1 2 3 5 7 8 8 7 8 9 12 15 15 15 16 18 19 21 23 23 20 15 13 15 16 14 12 11 9 5 2 2 4 5 6 10 14 13 11 10
9 8 6 5 4 4 3 2 3 2 0 1 1 2 2 1 1 1 1 0 1 1 1 1 1 1 3 3 2 1 1 1 1 1 0 1 1 1 1 1 1 1 0 1 1 1 2 2 2 4 6 7 9 9 8 7 7 10 12 14 15 17 19 18 17 20 23 23 20 18 18 17 17 19 20 18 14 11 7 4 5 5 4 9 9 8 6
4 3 2 2 3 3 2 1 2 1 1 1 1 2 4 4 3 2 1 0 0 1 1 2 2 1 1 2 1 1 0 1 1 1 1 1 1 1 0 1 1 0 0 0 1 2 2 1 2 4 5 6 8 9 10 8 7 8 10 13 15 17 17 17 16 17 19 21 22 22 22 21 21 24 26 24 20 16 12 10 12 15 13 9 9 11 12
2 2 1 1 2 1 1 1 2 1 2 2 2 3 4 5 4 3 1 2 2 2 2 2 3 3 3 2 2 1 0 0 0 1 1 1 0 1 1 2 1 1 1 2 2 1 1 2 3 5 6 7 8 9 10 9 8 7 8 11 14 15 14 15 15 14 13 15 18 19 19 20 20 20 22 26 27 25 21 18 17 21 24 24 20 13 12
2 2 1 1 3 2 1 0 1 1 2 3 4 4 5 5 4 4 2 1 2 2 1 1 2 2 2 1 1 1 1 1 0 1 1 1 1 2 2 2 2 2 2 2 2 1 2 3 4 5 6 7 7 9 9 9 9 8 8 9 11 13 13 14 14 12 12 15 18 18 18 19 20 19 21 26 30 30 28 26 27 29 31 28 23 22 25
2 2 1 0 2 3 1 1 2 2 3 4 4 5 5 5 4 4 4 4 5 3 1 2 2 1 1 2 1 0 1 1 1 0 1 1 1 1 2 2 2 2 2 2 2 2 2 3 3 4 5 6 7 8 9 9 10 10 10 9 9 11 13 13 12 12 14 16 16 16 16 19 21 22 22 24 27 30 31 31 32 34 35 31 27 28 29
1 1 0 0 1 2 3 4 4 3 4 5 5 5 5 4 4 4 5 5 6 5 2 1 1 1 0 1 1 2 2 1 1 2 2 2 1 1 2 2 2 2 2 2 2 2 2 3 4 4 4 6 7 7 8 9 10 10 11 10 10 10 11 11 12 13 15 15 13 13 15 18 20 22 22 22 24 28 32 32 31 32 34 33 32 31 29
2 1 1 1 1 2 4 5 4 4 4 5 5 5 5 5 5 5 5 6 6 5 3 3 2 2 2 2 2 2 3 2 2 2 3 3 3 2 2 2 2 2 2 2 2 1 2 3 4 4 5 7 7 7 8 9 10 9 10 11 11 10 10 11 12 15 17 16 14 14 16 18 19 20 21 20 21 25 29 31 31 32 32 33 32 30 28
2 1 0 2 2 3 3 4 5 5 5 4 5 5 5 5 5 5 5 6 6 4 3 3 3 2 2 2 2 1 2 2 2 3 3 4 4 3 2 2 2 3 2 2 2 1 1 1 3 4 6 7 7 8 8 8 9 9 9 10 12 13 12 12 13 15 17 17 15 16 17 17 18 18 18 17 19 23 27 29 29 29 30 32 34 32 29
2 1 1 0 1 1 1 2 4 4 5 5 5 4 4 4 5 6 7 6 5 4 4 4 2 2 2 2 2 2 2 2 3 3 4 3 2 2 2 2 2 3 3 2 2 2 2 3 4 5 6 6 7 8 8 8 9 10 11 11 12 13 13 12 13 14 15 16 17 17 17 17 17 17 18 19 21 21 21 23 25 26 26 27 29 29 27
1 2 2 1 1 2 1 2 2 3 4 4 4 4 3 2 3 5 6 5 4 3 4 3 2 1 2 2 2 2 2 2 4 5 4 3 1 2 2 1 2 3 3 2 2 2 3 4 4 5 6 7 7 7 8 9 9 11 13 12 11 11 11 12 11 12 13 14 15 16 17 16 15 15 15 17 17 15 13 15 20 23 24 25 26 26 26
Wind_Direction
329 331 335 339 343 346 349 351 353 354 358 359 351 338 324 330 309 298 312 329 327 308 260 305 302 342 337 330 340 337 319 316 331 338 336 334 334 338 330 325 331 329 321 323 319 313 315 317 319 327 321 310 317 329 336 341 340 337 324 320 334 335 312 248 242 255 274 246 196 174 177 185 196 213 214 197 188 185 177 173 171 174 207 223 237 267 262
326 329 332 336 339 343 347 350 352 354 357 358 349 338 325 308 299 300 318 341 353 344 308 322 314 321 326 328 337 328 311 318 336 339 331 331 343 343 331 328 329 321 314 313 316 322 329 323 322 326 315 309 320 325 331 336 335 330 327 329 333 322 305 307 276 239 251 246 195 172 176 186 195 205 209 217 201 180 176 180 164 173 201 195 188 246 253
326 328 331 334 335 339 343 346 351 352 354 356 350 332 301 306 290 290 326 343 354 351 345 340 316 317 325 322 325 320 312 328 339 332 321 323 347 341 324 324 320 314 317 317 321 339 4 341 314 318 312 308 315 322 327 327 321 312 316 320 317 287 274 294 290 240 230 229 192 175 177 183 196 198 200 217 215 187 176 176 163 188 208 192 181 226 261
325 328 330 332 332 335 339 341 346 348 350 356 348 319 303 324 318 323 337 340 339 343 357 350 339 340 333 318 319 322 316 319 323 317 315 326 342 333 319 324 323 319 326 325 322 341 359 322 299 310 316 313 314 318 319 316 312 311 316 321 320 273 259 260 254 250 246 259 271 207 174 173 191 200 195 207 218 206 176 165 184 185 183 196 196 184 206
324 326 327 329 329 332 335 337 341 344 347 352 346 314 301 327 323 335 346 331 331 348 356 356 350 332 322 321 331 328 316 310 314 316 325 333 333 325 318 324 322 322 330 329 326 335 331 305 301 310 313 316 313 314 314 310 314 320 321 326 326 294 280 274 264 264 258 267 289 279 189 175 180 195 202 199 206 216 198 174 189 162 139 205 220 158 159
323 325 326 328 328 330 333 336 338 342 345 349 348 320 313 337 318 349 360 338 330 343 335 332 325 313 314 321 320 318 317 317 320 322 324 323 326 329 316 315 317 320 331 333 324 327 319 304 312 316 316 326 324 321 320 317 330 341 329 328 331 299 293 313 302 296 289 277 282 287 246 182 174 189 210 203 195 209 214 185 172 156 143 208 209 153 156
322 325 327 328 329 329 332 336 339 341 345 347 339 304 319 337 294 343 9 335 302 306 302 304 307 308 312 311 310 324 332 325 322 325 320 316 329 349 318 308 316 321 327 327 313 317 317 309 317 315 312 326 330 328 323 319 345 359 334 324 331 307 313 336 325 305 295 291 287 291 293 250 169 186 208 218 199 199 211 208 172 158 163 193 178 158 171
322 325 327 327 327 328 331 335 337 338 341 339 321 290 301 343 308 339 350 309 288 291 294 303 311 310 306 306 317 333 330 318 317 321 317 311 322 333 307 303 315 321 321 315 306 314 314 299 299 302 305 321 323 321 319 310 323 339 335 324 323 318 325 330 328 314 293 309 318 302 289 279 275 188 202 219 214 195 202 215 194 157 172 191 166 156 181
323 324 325 324 325 326 329 332 332 334 333 324 303 286 287 272 123 6 330 305 299 299 303 311 311 304 305 316 328 331 323 318 320 322 317 312 313 314 308 309 316 319 315 309 307 313 306 288 284 286 287 291 286 281 285 296 310 322 328 319 315 319 324 324 333 337 310 325 311 290 291 292 290 274 214 214 226 200 193 205 210 170 172 182 149 144 184
323 323 323 324 324 325 326 327 326 327 321 308 290 276 289 284 171 110 321 297 293 293 300 304 299 298 310 322 327 322 315 319 331 337 318 308 308 313 317 318 314 309 307 307 313 317 307 296 291 284 277 266 249 251 263 270 282 296 306 308 308 315 320 329 345 334 321 344 296 276 300 325 270 253 219 126 332 249 192 191 213 191 166 171 161 180 198
322 322 322 322 322 323 323 322 321 320 312 300 286 272 282 285 268 182 92 286 279 283 299 298 289 291 305 314 318 317 316 323 333 320 289 303 316 321 323 317 304 303 311 314 317 313 302 294 289 279 272 267 254 247 256 261 263 269 280 289 299 308 309 319 342 317 309 329 311 285 305 298 237 255 63 75 11 301 199 183 203 210 162 157 162 173 180
320 320 320 320 321 320 320 318 317 315 308 301 293 283 283 280 264 203 148 259 279 302 294 281 280 292 301 303 305 314 320 318 314 305 306 324 331 327 324 315 310 314 312 316 320 315 306 300 293 284 274 264 255 249 251 256 257 258 259 264 282 300 304 309 325 291 293 321 321 304 278 253 238 50 38 40 9 332 47 123 181 235 316 178 160 130 88
320 319 319 319 319 319 318 317 314 309 305 303 297 291 290 280 253 190 153 228 265 281 277 278 284 286 288 290 297 312 317 311 312 317 321 331 332 329 332 329 322 321 317 322 328 322 311 308 302 293 283 269 257 249 247 249 249 250 253 255 265 281 295 308 310 292 302 330 294 222 248 282 321 49 30 6 334 324 53 60 47 356 347 330 170 133 104
319 319 319 318 319 319 318 316 313 308 303 302 297 295 294 281 251 195 130 199 244 261 277 289 290 284 285 292 302 314 315 313 319 323 325 339 338 328 334 329 318 324 332 328 324 316 307 312 308 300 290 270 254 247 243 241 237 238 243 248 256 267 284 312 312 307 342 332 286 255 301 325 2 21 1 342 328 312 94 71 29 6 1 356 4 123 117
320 320 320 319 320 320 318 316 314 309 305 302 297 292 290 283 263 232 159 156 254 276 264 248 261 285 298 303 308 314 317 320 322 319 324 336 338 330 327 313 298 299 317 314 306 299 308 310 311 314 309 296 289 271 247 235 224 223 229 237 245 253 264 293 301 306 337 326 300 287 295 350 3 349 337 328 322 327 88 83 34 0 357 1 2 35 99
322 322 322 322 322 321 319 316 312 309 307 305 300 292 289 288 268 235 194 144 237 256 238 236 259 289 299 300 302 302 307 316 317 322 328 325 336 350 328 310 301 303 322 327 328 332 311 300 312 314 298 298 312 313 297 286 245 212 213 223 237 245 251 268 278 287 307 315 323 311 259 28 353 339 337 331 317 314 72 78 38 347 341 359 12 14 26
323 323 322 322 322 320 319 315 310 309 307 304 301 295 290 290 269 236 209 154 209 242 281 289 291 301 293 289 297 291 281 301 303 307 312 312 334 350 322 317 341 358 350 346 326 314 332 314 315 313 287 292 308 314 321 328 328 238 193 205 230 246 252 264 255 267 292 290 310 334 55 28 347 337 336 325 310 312 63 72 22 329 334 359 21 23 21
323 323 322 323 323 320 318 314 309 308 306 301 300 295 289 289 272 241 216 164 228 243 245 250 256 262 261 267 283 284 292 323 315 302 307 308 327 339 328 331 357 6 6 7 335 334 352 318 313 322 316 317 315 312 322 330 331 335 165 177 215 247 248 263 254 274 305 306 306 328 86 19 348 339 335 324 313 4 66 78 262 311 340 6 22 28 28
323 323 323 323 322 319 316 314 311 309 307 303 301 295 289 289 271 240 221 190 231 241 242 249 253 259 265 268 275 278 287 317 328 311 315 322 330 328 328 332 333 338 5 14 340 347 346 319 330 314 303 329 333 322 321 318 322 337 313 182 191 259 256 267 264 277 297 309 4 328 3 356 344 339 342 349 7 62 63 80 263 337 7 16 17 26 32
324 324 324 322 321 319 317 315 312 310 307 305 304 297 289 290 274 241 224 205 219 257 263 262 258 261 267 270 272 279 288 297 294 294 304 316 329 328 328 346 344 339 356 358 353 26 359 328 335 322 279 318 321 325 329 313 318 350 344 283 129 354 311 280 316 311 311 339 12 36 69 332 339 349 3 18 46 83 326 327 15 16 21 17 11 21 27
325 325 324 322 321 321 318 316 313 312 310 308 306 301 292 291 289 251 230 221 220 270 273 273 273 273 275 272 270 272 276 273 271 282 295 300 318 324 322 341 344 341 348 340 340 35 7 333 329 328 332 298 285 324 339 317 315 346 345 338 24 15 351 1 1 353 18 45 7 33 197 312 343 12 20 16 63 96 39 22 30 21 20 17 8 12 16
326 325 325 324 324 323 320 318 316 314 314 312 307 301 290 287 300 281 236 224 222 243 275 291 295 290 282 276 272 268 267 269 271 276 285 290 298 297 302 339 347 329 232 344 337 341 351 337 321 325 335 335 323 327 332 318 310 337 345 358 12 336 336 132 235 317 349 201 224 236 280 325 1 34 11 348 34 69 54 39 31 16 16 19 8 4 9
326 327 327 326 326 324 320 319 317 314 312 310 300 290 283 284 294 283 228 221 227 252 268 273 283 289 281 272 264 256 253 257 260 263 268 280 296 297 293 10 330 284 187 150 230 318 335 323 314 327 329 328 330 327 335 352 344 324 341 358 324 312 327 74 191 307 325 270 235 310 358 357 2 16 4 352 14 38 45 47 36 8 6 15 9 3 6
328 329 329 327 326 324 320 317 315 311 307 303 294 282 276 282 283 235 199 207 228 269 268 257 251 259 262 265 270 260 247 244 246 247 244 232 242 293 312 211 231 291 330 217 205 225 329 312 305 322 321 321 331 332 345 0 336 307 329 335 319 337 354 352 339 358 358 342 344 349 352 350 339 334 349 17 26 29 33 45 45 16 5 9 9 4 2
331 332 330 328 325 322 320 317 311 308 306 301 291 272 259 270 264 209 192 201 241 253 281 278 258 259 257 258 275 280 258 247 245 238 227 222 229 262 288 283 271 284 313 318 281 276 312 290 296 316 314 325 342 339 341 345 314 309 328 328 316 341 355 341 333 353 354 324 325 329 318 291 288 323 4 33 40 30 18 22 38 31 13 3 4 7 4
334 333 331 328 325 323 322 317 310 306 303 291 269 242 234 258 242 196 195 222 273 218 271 293 295 303 305 299 297 301 289 264 249 227 214 231 249 270 289 298 297 293 303 320 316 310 302 283 294 314 312 337 354 333 317 317 311 311 315 307 302 317 338 337 332 330 315 300 351 357 342 315 326 13 20 17 17 17 11 11 20 31 24 5 357 1 4
335 334 331 330 329 330 329 324 318 311 292 240 216 213 230 247 214 188 191 213 235 231 277 280 293 315 320 311 296 288 282 273 269 263 272 278 279 289 298 301 299 299 309 325 320 308 299 299 313 321 332 356 355 322 294 300 304 296 291 303 319 333 347 349 343 330 312 325 3 14 359 320 338 5 1 353 358 9 12 7 3 16 31 15 354 349 355
336 335 336 339 343 347 347 354 32 91 114 128 141 167 231 239 210 197 202 226 254 289 315 299 288 300 309 307 295 273 222 227 279 279 270 283 299 311 313 314 325 334 339 341 336 324 318 327 330 330 351 3 346 318 312 311 296 273 289 337 12 21 360 355 351 320 302 311 335 356 345 312 332 338 330 329 346 355 357 358 353 3 25 19 348 337 342
338 343 352 359 5 16 35 59 81 95 99 99 105 150 192 163 186 201 210 233 254 281 315 290 280 299 319 327 334 345 103 171 214 247 261 340 1 359 353 353 359 354 345 342 342 332 329 336 336 340 5 8 338 313 328 325 299 304 330 343 13 19 353 346 336 312 303 307 319 324 314 310 321 315 309 312 322 322 319 321 324 337 346 337 324 322 322
349 2 11 19 40 61 71 74 73 70 67 74 116 205 194 144 169 199 204 222 236 235 326 310 303 332 330 332 0 10 14 26 32 29 34 39 36 25 17 11 4 1 354 348 351 349 339 339 338 344 3 9 353 318 326 324 304 304 319 328 340 345 337 331 324 311 303 302 307 306 299 296 299 296 296 300 302 296 294 296 300 317 330 330 327 313 298
8 26 33 52 76 81 81 79 70 49 18 345 273 245 283 65 104 183 192 201 210 206 285 300 287 305 319 353 42 21 10 20 35 35 34 36 34 34 35 29 18 17 13 353 356 6 356 342 336 334 353 9 4 323 312 314 300 298 316 327 332 329 321 315 310 303 298 298 302 299 292 288 285 278 277 284 292 295 295 294 298 321 348 347 333 320 313
41 57 61 78 90 91 88 82 73 65 52 46 59 71 88 114 113 97 129 179 207 224 287 315 305 307 322 28 50 21 8 23 44 35 26 32 26 25 36 45 52 38 23 13 16 15 359 347 338 327 338 358 350 315 309 308 291 298 314 320 317 312 306 301 297 292 288 288 292 290 284 278 267 262 270 280 292 295 297 300 302 304 311 308 295 292 298
88 83 83 96 97 94 96 83 70 76 75 70 75 77 87 117 123 112 102 170 261 268 281 310 317 328 324 336 38 19 7 17 48 25 22 39 24 16 37 46 53 41 30 28 36 359 346 344 331 323 333 351 341 318 306 279 276 293 305 308 305 301 294 289 287 284 278 271 264 262 266 269 268 270 277 285 290 291 294 301 303 302 300 296 291 286 280
125 111 103 108 109 104 90 38 26 1 275 203 94 78 57 83 126 142 148 251 288 269 258 304 319 333 332 309 33 17 4 1 25 19 28 32 12 24 66 47 31 40 38 32 29 350 340 333 330 336 344 350 341 321 287 276 289 299 301 298 295 291 286 282 278 270 263 258 249 246 253 262 270 274 275 274 275 280 285 288 289 290 290 289 286 283 281
162 155 128 121 138 160 308 311 301 285 274 244 93 52 354 18 148 174 184 306 312 272 197 354 316 334 341 342 27 21 3 1 14 12 40 57 25 29 94 75 36 42 59 44 35 356 320 311 343 347 336 335 336 313 272 287 295 296 294 296 298 297 293 288 279 265 252 245 243 244 248 250 252 256 261 262 260 262 269 275 276 275 274 278 281 282 285
198 195 189 206 255 289 297 288 277 278 288 66 69 10 16 87 129 265 289 330 308 320 359 349 330 356 354 348 359 357 344 344 72 58 112 110 56 41 113 114 67 76 166 160 138 264 262 214 149 313 335 353 317 262 260 280 287 284 285 299 308 306 299 290 283 274 260 243 237 238 240 238 239 243 248 254 255 250 251 258 264 266 268 272 282 287 283
260 222 215 243 282 287 274 257 235 264 277 276 44 36 56 96 167 267 298 175 218 239 303 310 322 30 23 329 306 328 335 347 106 105 7 82 119 170 199 171 120 137 202 239 233 220 187 124 119 275 290 270 257 265 288 311 313 304 305 319 323 319 312 308 308 300 272 242 233 234 233 232 236 239 238 242 243 238 236 240 245 252 259 263 268 276 273
290 236 212 239 275 279 225 214 240 234 214 55 43 55 97 170 212 212 164 174 196 181 186 259 284 143 162 230 333 2 319 253 185 169 143 133 190 211 206 142 156 174 235 303 144 150 152 127 137 200 263 265 268 294 328 340 338 332 333 338 337 335 338 345 350 349 322 248 225 221 221 224 230 234 235 237 235 231 230 232 231 233 243 252 262 270 268
282 247 218 231 254 281 134 202 184 110 105 81 28 27 190 198 212 199 163 167 175 169 185 248 286 280 262 297 34 74 251 266 269 260 149 144 174 197 187 232 222 228 355 353 126 133 76 320 290 306 321 324 333 339 342 345 346 345 346 350 351 353 357 1 3 3 356 337 261 213 213 221 228 230 231 231 229 226 227 228 225 221 225 236 248 257 262
231 238 240 244 239 152 179 172 135 111 105 222 235 244 214 202 187 53 79 85 7 348 186 264 288 287 299 316 307 217 184 185 277 331 353 109 144 177 173 193 197 140 27 4 63 115 32 311 311 353 351 340 336 336 340 351 356 354 353 358 2 3 4 7 11 11 8 9 16 25 16 335 298 267 246 230 223 221 223 226 225 224 228 232 235 243 251
252 250 269 327 15 116 179 154 137 145 236 243 215 257 272 185 84 39 30 34 3 318 240 304 305 306 329 308 264 258 223 182 168 352 345 332 146 158 154 142 142 116 44 346 238 129 23 302 320 358 350 332 324 330 346 357 0 0 1 5 8 8 8 11 15 15 13 16 22 27 28 25 15 356 339 314 262 240 236 238 231 220 218 227 236 243 243
286 282 290 307 301 220 197 207 211 216 247 262 258 299 307 12 60 20 27 58 3 275 218 113 307 308 319 307 276 264 244 198 186 193 288 214 111 235 211 185 138 98 149 201 200 68 16 343 340 352 343 330 330 342 357 2 4 7 7 6 9 11 12 14 16 15 15 17 20 23 28 30 26 21 21 17 8 348 291 264 252 240 230 225 226 238 234
294 283 286 285 248 205 192 225 225 201 175 303 333 359 349 351 47 44 44 133 226 247 205 146 168 281 301 293 276 263 177 174 187 235 244 194 218 247 224 157 94 18 251 186 130 21 3 357 354 348 340 337 342 352 360 5 10 13 12 12 15 16 16 18 19 17 17 19 22 25 29 31 29 29 31 31 32 34 33 42 55 28 279 224 177 136 123
304 259 255 254 220 187 163 253 258 246 9 332 342 8 357 359 23 27 350 237 227 253 206 171 165 204 245 238 238 254 221 182 193 223 215 195 226 266 302 80 91 187 240 63 46 21 3 359 354 345 341 344 348 351 355 3 15 19 17 17 20 21 21 21 22 21 21 21 21 24 28 30 31 33 33 31 32 33 32 42 62 61 47 47 88 119 140
268 235 219 276 282 241 107 320 285 306 7 4 14 12 1 4 15 12 356 186 200 253 247 181 176 200 220 216 207 203 202 62 320 239 226 223 268 29 43 39 47 95 74 35 19 7 353 349 351 350 351 353 353 352 352 358 9 19 23 23 23 24 26 26 24 24 25 24 22 24 28 30 30 32 33 33 35 38 38 36 48 63 62 50 44 62 96
246 276 246 269 298 289 206 306 312 344 16 14 13 11 4 3 10 11 7 237 237 278 298 219 214 227 235 229 210 155 115 85 302 253 239 263 21 63 82 63 25 22 28 18 8 359 353 357 357 351 347 350 354 356 355 355 3 16 28 30 28 28 29 29 28 27 27 28 28 28 30 32 32 31 33 35 36 38 40 41 45 57 65 59 47 50 62
251 305 313 263 297 291 297 15 3 26 37 26 19 14 6 360 3 11 0 332 316 322 316 218 226 222 198 227 237 102 101 168 204 33 18 8 24 55 78 71 35 18 12 8 353 325 336 6 359 335 330 343 356 360 358 356 0 11 23 32 36 35 33 30 30 30 30 31 33 33 32 34 36 35 34 37 38 37 38 42 47 54 61 62 56 54 58
260 307 297 240 297 332 2 1 0 28 44 33 19 11 5 359 1 9 357 328 313 314 313 289 294 3 10 259 299 38 41 11 8 22 11 359 19 38 36 30 23 22 21 3 323 304 336 2 347 321 328 353 4 5 2 358 358 7 19 28 33 39 41 36 31 33 35 34 36 39 38 37 39 40 39 38 38 38 38 41 45 51 57 60 58 55 54
281 237 258 276 351 34 17 360 358 18 35 33 20 8 1 2 6 4 349 325 313 319 343 2 5 7 354 336 357 36 32 11 3 15 23 27 25 16 14 15 8 2 359 344 319 324 354 340 318 323 357 11 11 6 4 359 355 1 17 26 27 35 47 46 37 36 40 40 40 45 47 44 42 45 46 44 42 41 42 43 45 48 52 56 57 54 52
281 230 302 342 4 19 16 7 4 5 11 23 24 6 355 0 6 357 339 322 316 331 17 41 30 10 359 348 347 19 42 39 27 27 37 37 23 6 20 32 5 334 320 314 318 352 27 314 317 349 14 16 11 6 2 359 355 356 9 22 27 30 42 54 51 44 42 43 45 51 55 54 49 47 50 52 53 50 47 46 47 49 52 56 58 56 51
293 290 171 154 18 10 17 33 23 6 2 17 21 4 355 4 360 342 333 329 331 353 22 29 14 3 14 11 1 359 18 45 51 48 48 46 23 4 21 27 343 320 320 323 331 359 26 18 11 15 13 8 9 8 357 348 350 353 359 14 28 30 34 48 61 59 50 46 47 52 58 62 62 60 60 62 63 61 55 49 48 50 53 58 62 63 60
314 320 308 333 25 18 37 77 57 20 16 29 18 349 343 1 346 328 331 340 355 18 24 13 357 14 28 21 13 9 9 24 40 43 45 52 52 38 46 31 312 316 340 347 339 8 35 32 28 26 16 7 6 1 347 342 349 353 355 5 24 34 31 36 53 66 64 54 48 51 56 61 65 69 69 67 65 65 63 58 57 57 57 59 62 65 65